www.pogodaiklimat.ru

Погода и климат >> Архив погоды >> Мьянма >> Янгон


ПОГОДА у Янгоне

  • Прогноз погоды у Янгоне
  • Монитор погоды у Янгоне

АРХИВ ПОГОДЫ у Янгоне

Время (UTC), дата Ветер
(напр.,м/с)
 
Видим.   Явления Облачность Т
(С)
Тd
(С)
f
(%)
Тe
(С)
Тes
(С)
Комфортность P
(гПа)
Po
(гПа)
Тmin
(С)
Tmax
(С)
R
(мм)
R24
(мм)
S
(см)
06 12.09 ЮВ 1 7000 м 9/6 300 м
[Cu Sc Ac und]
+30.0 +25.3 76 +44 +48 опасность
перегрева
1014.1 1012.4
09 12.09 ЮЗ 2 6000 м сильн. дождь 10/6 300 м
[Frnb As op]
+24.0 +24.0 100 +33 +34 очень
душно
1012.6 1010.9
12 12.09 З 2 6000 м дождь 10/6 300 м
[Frnb As op]
+24.0 +24.0 100 +33 +33 очень
душно
1013.4 1011.7 +30.0 39
15 12.09 ЮВ 2 5000 м слаб. морось {дождь} 10/6 300 м
[Frnb As op]
+24.0 +24.0 100 +33 +33 очень
душно
1014.7 1013.0
00 13.09 ЮВ 2 6000 м 8/5 300 м
[Cb calv Ac und]
+24.0 +24.0 100 +33 +33 очень
душно
1013.5 1011.8 +23.5 1
03 13.09 ЮВ 1 7000 м 9/5 300 м
[Cu Sc Ac trans]
+27.0 +25.6 92 +40 +44 очень
душно
1015.0 1013.3
06 13.09 СВ 2 7000 м 5/4 300 м
[Cu Sc Ac trans]
+29.5 +25.0 77 +43 +54 опасность
перегрева
1012.4 1010.7
09 13.09 ЮЗ 2 7000 м 8/4 300 м
[Cu Sc Ac trans]
+30.5 +25.4 74 +44 +47 опасность
перегрева
1009.0 1007.3
12 13.09 СВ 2 6000 м в посл. час дождь 8/5 300 м
[Cu Sc Ac trans Ci fib]
+26.0 +24.6 92 +37 +37 очень
душно
1009.5 1007.8 +31.5 2
15 13.09 ЮЗ 2 5000 м 8/5 300 м
[Sc Ac und]
+26.0 +24.6 92 +37 +37 очень
душно
1011.1 1009.4
00 14.09 ЮЗ 2 7000 м 5/3 300 м
[Sc Ac trans]
+25.5 +25.5 100 +37 +37 очень
душно
1009.5 1007.8 +23.5
03 14.09 ЮВ 1 7000 м 8/8 300 м
[Cu Sc]
+28.0 +25.0 84 +40 +43 очень
душно
1010.7 1009.0
06 14.09 СВ 2 8000 м 6/6 600 м
[Cu Sc]
+31.5 +25.1 69 +45 +53 опасность
перегрева
1009.1 1007.4
09 14.09 СВ 1 8000 м 6/5 600 м
[Cu Sc Ci fib]
+32.5 +25.3 66 +47 +51 опасность
перегрева
1006.3 1004.6
12 14.09 ЮЗ 1 6000 м 8/5 600 м
[Cu Sc Ci fib]
+30.0 +25.3 76 +44 +44 опасность
перегрева
1006.9 1005.2 +33.2
15 14.09 ЮЗ 2 5000 м 9/6 300 м
[Cb calv Ac As]
+28.0 +25.0 84 +40 +40 очень
душно
1009.0 1007.3
00 15.09 ЮЗ 2 7000 м в посл. час дождь 8/4 300 м
[Sc Ci sp]
+24.5 +23.6 95 +33 +33 очень
душно
1007.1 1005.4 +24.0 1
03 15.09 СВ 3 7000 м 5/5 600 м
[Cu Sc]
+29.5 +25.6 80 +44 +49 опасность
перегрева
1008.7 1007.0
06 15.09 ЮВ 3 7000 м 5/5 600 м
[Cu Sc]
+32.0 +26.5 73 +49 +57 опасность
перегрева
1008.1 1006.4
09 15.09 ЮВ 3 7000 м 5/5 600 м
[Cu Sc]
+32.0 +26.5 73 +49 +52 опасность
перегрева
1005.8 1004.1
12 15.09 ЮВ 1 6000 м 4/3 600 м
[Cu Sc Ci fib]
+29.5 +25.6 80 +44 +44 опасность
перегрева
1005.0 1003.3 +33.5
15 15.09 СВ 2 5000 м 4/4 1000 м
[Sc]
+27.0 +25.6 92 +40 +40 очень
душно
1008.2 1006.5
03 16.09 ЮВ 1 7000 м 5/5 600 м
[Cu Sc]
+30.0 +26.6 82 +46 +54 опасность
перегрева
1009.0 1007.3
06 16.09 ЮВ 5 7000 м 5/4 600 м
[Cu Sc Ac trans]
+33.0 +27.5 73 +52 +58 опасность
перегрева
1007.8 1006.1
09 16.09 ЮВ 2 7000 м 5/5 600 м
[Cu Sc]
+33.5 +25.8 64 +49 +53 опасность
перегрева
1004.7 1003.0
12 16.09 ЮЗ 2 7000 м 6/3 600 м
[Cu Sc Ci fib]
+29.0 +24.8 78 +41 +41 опасность
перегрева
1005.1 1003.4 +33.8
15 16.09 ЮВ 2 5000 м 8/5 600 м
[Sc Ac trans]
+27.0 +25.6 92 +40 +40 очень
душно
1007.2 1005.5
00 17.09 ЮВ 2 6000 м слаб. дождь 9/6 300 м
[Frnb Ac trans]
+25.5 +24.8 96 +36 +36 очень
душно
1009.5 1007.8 +24.5 1
03 17.09 ЮВ 3 6000 м {дождь} 5/1 300 м
[Cu hum Ac trans]
+28.5 +26.4 88 +43 +50 опасность
перегрева
1009.5 1007.8
06 17.09 ЮЗ 3 8000 м 5/5 600 м
[Cu Sc]
+32.0 +26.5 73 +49 +57 опасность
перегрева
1008.2 1006.5
09 17.09 В 3 8000 м 5/5 600 м
[Cu Sc]
+33.0 +27.5 73 +52 +56 опасность
перегрева
1006.2 1004.5
12 17.09 ЮЗ 2 6000 м 4/4 600 м
[Sc]
+30.0 +25.3 76 +44 +44 опасность
перегрева
1006.6 1004.9 +34.2 0.0
15 17.09 Ю 1 5000 м 1/1 600 м
[Sc]
+27.5 +25.3 88 +40 +40 очень
душно
1008.8 1007.1
00 18.09 Ю 1 6000 м дымка 6/4 300 м
[Sc Ac trans Ci fib]
+26.0 +24.6 92 +37 +37 очень
душно
1009.8 1008.1 +25.0
03 18.09 СВ 1 7000 м 6/5 300 м
[Cu Sc Ci fib]
+30.0 +25.3 76 +44 +51 опасность
перегрева
1010.8 1009.1
06 18.09 Ю 1 7000 м 5/5 600 м
[Cu Sc Ac trans]
+32.0 +25.6 69 +47 +59 опасность
перегрева
1009.9 1008.2
09 18.09 ЮВ 4 7000 м 5/5 600 м
[Cu Sc]
+34.5 +26.2 62 +51 +53 опасность
перегрева
1008.5 1006.8
12 18.09 ЮЗ 2 6000 м 5/4 600 м
[Cb calv Ac trans]
+30.0 +26.6 82 +46 +46 опасность
перегрева
1008.6 1006.9 +35.0
15 18.09 ЮЗ 2 5000 м 4/3 600 м
[Sc Ac trans]
+28.5 +26.4 88 +43 +43 опасность
перегрева
1011.1 1009.4
00 19.09 ЮВ 4 6000 м слаб. дождь {гроза, морось} 10/6 300 м
[Cb cap Ac As]
+26.0 +24.6 92 +37 +37 очень
душно
1010.6 1008.9 +24.6 1
03 19.09 ЮВ 4 6000 м {гроза, дождь} 10/6 300 м
[Cb calv Ac und]
+26.5 +25.1 92 +38 +39 очень
душно
1012.4 1010.7

 

Местоположение метеостанции Янгон (Мьянма): широта 16.77 долгота 96.17 высота над уровнем моря 15 м.

В архиве по умолчанию представлена погода у Янгоне за последнюю неделю. Архивные данные за месяц целиком и за предыдущие месяцы, начиная с января 2011 года, Вы можете получить, выбрав интересующий диапазон дат из раскрывающегося списка и нажав кнопку "Ввод!".


*Определитесь, кто Вы:
робот инопланетянин человек

Внимание! Время в таблицах - всемирное. Для получения местного времени необходимо прибавить поправку, которая равна 6.5 ч.

Смотрите также архив погоды в соседних городах и на ближайших метеорологических станциях:

Погода в Мингаладоне (Мьянма) (14 км)
Погода в Хмавби (Мьянма) (41 км)
Погода в Маубине (Мьянма) (56 км)
Погода в Пегу (Мьянма) (71 км)
Погода в Пхьяпоуне (Мьянма) (77 км)
Погода в Хинтаде (Мьянма) (128 км)
Погода в Бассейне (Мьянма) (149 км)
Погода в Моламьяйне (Мьянма) (157 км)
Погода в Пхаане (Мьянма) (160 км)
Погода в Гва (Мьянма) (191 км)

Пояснения к столбцам:

Ветер - указаны скорость ветра в м/с - средняя за 10 мин, порывы в срок и между сроками (в фигурных скобках) и направление, откуда дует ветер: С - северный, СВ - северо-восточный, В - восточный, ЮВ - юго-восточный, Ю - южный, ЮЗ - юго-западный, З - западный, СЗ - северо-западный.
Видимость - горизонтальная дальность видимости в метрах или километрах. При видимости от 1 до 10 км при отсутствии осадков обычно наблюдается дымка, при ухудшении видимости до 1 км и менее - туман. В сухую погоду видимость может ухудшаться дымом, пылью или мглою.
Явления - указаны атмосферные явления, наблюдавшиеся в срок или в последний час перед сроком; фигурными скобками обозначены явления, наблюдавшиеся между сроками (за 1-3 часа до срока); квадратными скобками обозначены град или гололедные отложения с указанием их диаметра в мм.
Облачность - указаны через наклонную черту общая и нижняя облачность в баллах и высота нижней границы облаков в метрах; квадратными скобками обозначены формы облаков: Ci - перистые, Cs - перисто-слоистые, Cc - перисто-кучевые, Ac - высококучевые, As - высокослоистые, Sc - слоисто-кучевые, Ns - слоисто-дождевые, Cu - кучевые, Cb - кучево-дождевые. Подробнее классификацию облаков см. в Атласе облаков (PDF).
T - Температура воздуха - температура, измеренная на высоте 2 м над землей.
Td - Температура точки росы - температура, при понижении до которой содержащийся в воздухе водяной пар достигнет насыщения.
f - Относительная влажность воздуха - влажноcть воздуха, измеренная на высоте 2 м над землей.
Te - Эффективная температура - температура, которую ощущает одетый по сезону человек в тени. Характеристика душности погоды. При расчете учитывается влияние влажности воздуха и скорости ветра на теплоощущения человека.
Tes - Эффективная температура на солнце - температура, которую ощущает человек, с поправкой на солнечный нагрев. Характеристика знойности погоды. Зависит от высоты солнца над горизонтом, облачности и скорости ветра. Ночью, в пасмурную погоду, а также при ветре 12 м/с и более поправка равна нулю.
P - Атмосферное давление - приведенное к уровню моря атмосферное давление.
Po - Атмосферное давление - измеренное на уровне метеостанции атмосферное давление.
Tmin - Минимальная температура - минимум температуры воздуха на высоте 2 м над землей.
Tmax - Максимальная температура - максимум температуры воздуха на высоте 2 м над землей.
R - Количество осадков - Количество выпавших осадков за период времени, мм. При наведении курсора мыши на число - период времени, за который выпало указанное количество осадков.
R24 - Количество осадков - Количество выпавших осадков за 24 часа, мм.
S - Снежный покров - Высота снежного покрова, см. При наведении курсора мыши на число - состояние снежного покрова и степень покрытия местности в баллах.